Terminal Aerodrome Forecast
Issued by NWS

Home | Current Version | Previous Version | Text Only | Print | Product List | Glossary On
Versions: 1 2 3 4 5 6 7 8 9 10 11 12 13 14 15 16 17 18 19 20
000
FTUS41 KPBZ 300808 AAA
TAFHLG
TAF AMD
KHLG 300808Z 3008/0106 18004KT P6SM BKN015
     FM301500 22010KT P6SM BKN025
     FM302000 22010G18KT P6SM VCTS BKN035CB
     FM010100 21005KT P6SM VCSH BKN100=

USA.gov is the U.S. government's official web portal to all federal, state and local government web resources and services.